GW2569 Weather Reports


Display with metric or nautical units.
time (UTC)temp
F
wind
direction
speed
MPH
gust
MPH
rain 1hr
in
rain 24hr
in
rain mn
in
humidity
%
barometer
mb
20260510160540 88 275 3.0 9.0 0.00 0.00 0.00 80 1012.6
20260510160052 88 282 4.0 10.0 0.00 0.00 0.00 79 1012.4
20260510155540 89 316 2.0 10.0 0.00 0.00 0.00 80 1012.5
20260510155040 89 294 5.0 11.0 0.00 0.00 0.00 79 1012.5
20260510154608 89 320 4.0 11.0 0.00 0.00 0.00 79 1012.5
20260510153051 88 240 1.0 4.0 0.00 0.00 0.00 80 1012.3
20260510152540 87 335 0.0 6.0 0.00 0.00 0.00 80 1012.2
20260510152040 87 304 2.0 6.0 0.00 0.00 0.00 81 1012.3
20260510151552 86 269 1.0 5.0 0.00 0.00 0.00 81 1012.3
20260510151041 86 319 0.0 5.0 0.00 0.00 0.00 82 1012.3
20260510150540 85 334 2.0 5.0 0.00 0.00 0.00 82 1012.4
20260510150111 85 0 2.0 5.0 0.00 0.00 0.00 82 1012.4
20260510145540 85 5 1.0 4.0 0.00 0.00 0.00 84 1012.4
20260510145037 83 0 0.0 5.0 0.00 0.00 0.00 86 1012.4
20260510144605 83 33 2.0 5.0 0.00 0.00 0.00 87 1012.5
20260510144039 82 300 2.0 11.0 0.00 0.00 0.00 88 1012.5
20260510143658 82 299 4.0 11.0 0.00 0.00 0.00 88 1012.4
20260510141550 83 269 5.0 11.0 0.00 0.00 0.00 86 1012.2
20260510141039 83 284 4.0 10.0 0.00 0.00 0.00 86 1012.3
20260510140540 82 306 2.0 7.0 0.00 0.00 0.00 86 1012.2
20260510140051 82 256 2.0 7.0 0.00 0.00 0.00 87 1012.2
20260510135539 82 0 2.0 7.0 0.00 0.00 0.00 87 1012.1
20260510135040 82 0 2.0 4.0 0.00 0.00 0.00 87 1012.2
20260510134604 82 0 1.0 4.0 0.00 0.00 0.00 89 1012.0
20260510134041 81 77 1.0 5.0 0.00 0.00 0.00 90 1011.9
20260510133612 81 250 0.0 7.0 0.00 0.00 0.00 91 1011.9
20260510132539 80 125 1.0 5.0 0.00 0.00 0.00 92 1011.9
20260510132040 79 165 1.0 7.0 0.00 0.00 0.00 92 1011.8
20260510131545 79 0 0.0 7.0 0.00 0.00 0.00 93 1011.8
20260510131039 79 141 3.0 7.0 0.00 0.00 0.00 93 1011.7
20260510130539 79 157 3.0 7.0 0.00 0.00 0.00 93 1011.7
20260510130047 79 202 4.0 8.0 0.00 0.00 0.00 93 1011.6
20260510130009 79 194 4.0 10.0 0.00 0.00 0.00 93 1011.6
20260510060542 85 115 2.0 7.0 0.00 0.00 0.00 91 1010.5
20260510060059 85 185 3.0 7.0 0.00 0.00 0.00 91 1010.7
20260510055543 86 192 2.0 6.0 0.00 0.00 0.00 91 1010.8
20260510055042 86 177 1.0 4.0 0.00 0.00 0.00 90 1010.6
20260510054557 86 116 1.0 9.0 0.00 0.00 0.00 90 1010.6
20260510054041 86 132 3.0 9.0 0.00 0.00 0.00 90 1010.7
20260510053544 86 110 3.0 9.0 0.00 0.00 0.00 90 1010.7
20260510053100 86 73 3.0 9.0 0.00 0.00 0.00 89 1010.6
20260510052541 86 54 2.0 8.0 0.00 0.00 0.00 89 1010.6
20260510052043 86 39 2.0 9.0 0.00 0.00 0.00 89 1010.7
20260510051638 86 67 4.0 9.0 0.00 0.00 0.00 89 1010.7
20260510051044 87 55 3.0 7.0 0.00 0.00 0.00 88 1010.8
20260510050540 87 53 3.0 9.0 0.00 0.00 0.00 88 1010.8
20260510050056 87 49 3.0 9.0 0.00 0.00 0.00 88 1010.8
20260510045542 87 65 3.0 9.0 0.00 0.00 0.00 87 1010.8
20260510045041 87 44 3.0 7.0 0.00 0.00 0.00 87 1010.7
20260510044557 87 46 2.0 6.0 0.00 0.00 0.00 87 1010.7
20260510044041 87 49 2.0 5.0 0.00 0.00 0.00 87 1010.7
20260510043540 87 73 1.0 5.0 0.00 0.00 0.00 88 1010.7
20260510043137 87 95 1.0 4.0 0.00 0.00 0.00 88 1010.6
20260510042541 87 0 0.0 4.0 0.00 0.00 0.00 88 1010.6
20260510042044 87 304 1.0 4.0 0.00 0.00 0.00 88 1010.6
20260510041559 87 303 1.0 4.0 0.00 0.00 0.00 88 1010.5
20260510041040 87 55 1.0 4.0 0.00 0.00 0.00 88 1010.4
20260510040537 87 42 1.0 5.0 0.00 0.00 0.00 88 1010.5
20260510040049 87 0 1.0 5.0 0.00 0.00 0.00 89 1010.5
20260510035539 87 71 1.0 5.0 0.00 0.00 0.00 89 1010.4
20260510035041 87 333 1.0 4.0 0.00 0.00 0.00 89 1010.2
20260510034553 87 0 1.0 4.0 0.00 0.00 0.00 89 1010.2
20260510034039 87 68 1.0 4.0 0.00 0.00 0.00 89 1010.2
20260510033541 87 84 0.0 4.0 0.00 0.00 0.00 89 1010.1
20260510033048 87 67 1.0 4.0 0.00 0.00 0.00 89 1010.1
20260510032538 87 32 1.0 4.0 0.00 0.00 0.00 89 1010.2
20260510032039 88 74 0.0 6.0 0.00 0.00 0.00 89 1010.2
20260510031619 88 86 0.0 6.0 0.00 0.00 0.00 89 1010.2
20260510031038 88 50 1.0 5.0 0.00 0.00 0.00 88 1010.1
20260510030537 88 36 1.0 5.0 0.00 0.00 0.00 88 1009.9
20260510030046 88 0 1.0 6.0 0.00 0.00 0.00 88 1009.6
20260510025539 89 18 2.0 6.0 0.00 0.00 0.00 87 1009.5
20260510025036 89 0 1.0 6.0 0.00 0.00 0.00 87 1009.4
20260510024547 89 51 2.0 8.0 0.00 0.00 0.00 87 1009.3
20260510024039 89 355 2.0 8.0 0.00 0.00 0.00 87 1009.2
20260510023539 89 333 3.0 6.0 0.00 0.00 0.00 86 1009.1
20260510023053 90 345 0.0 6.0 0.00 0.00 0.00 86 1008.9
20260510022537 90 338 1.0 7.0 0.00 0.00 0.00 86 1008.9
20260510022037 90 308 3.0 7.0 0.00 0.00 0.00 86 1008.7
20260510021547 90 324 1.0 6.0 0.00 0.00 0.00 85 1008.5
20260510021038 90 139 0.0 8.0 0.00 0.00 0.00 85 1008.5
20260510020543 91 53 1.0 8.0 0.00 0.00 0.00 85 1008.5
20260510020049 91 67 1.0 9.0 0.00 0.00 0.00 84 1008.4
20260510015539 91 9 1.0 9.0 0.00 0.00 0.00 84 1008.4
20260510015036 92 24 4.0 9.0 0.00 0.00 0.00 83 1008.3
20260510014553 92 0 1.0 5.0 0.00 0.00 0.00 83 1008.2
20260510014040 93 305 1.0 4.0 0.00 0.00 0.00 82 1008.3
20260510013538 92 0 0.0 3.0 0.00 0.00 0.00 82 1008.2
20260510013046 92 61 0.0 3.0 0.00 0.00 0.00 82 1008.1
20260510012539 92 69 0.0 5.0 0.00 0.00 0.00 82 1008.1
20260510012039 92 0 1.0 5.0 0.00 0.00 0.00 81 1008.0
20260510011602 92 40 2.0 8.0 0.00 0.00 0.00 81 1007.8
20260510011036 92 55 3.0 8.0 0.00 0.00 0.00 81 1007.5
20260510010614 92 47 2.0 7.0 0.00 0.00 0.00 81 1007.5
20260510005541 93 65 2.0 6.0 0.00 0.00 0.00 81 1007.4
20260510005040 93 78 1.0 7.0 0.00 0.00 0.00 81 1007.3
20260510004551 93 23 3.0 7.0 0.00 0.00 0.00 81 1007.2
20260510004047 93 66 2.0 8.0 0.00 0.00 0.00 81 1007.2
20260510003541 93 40 3.0 8.0 0.00 0.00 0.00 81 1007.0
20260510003048 93 79 4.0 8.0 0.00 0.00 0.00 80 1007.0
20260510002539 94 133 3.0 8.0 0.00 0.00 0.00 80 1006.9
20260510002040 94 76 2.0 8.0 0.00 0.00 0.00 80 1006.7
20260510001552 94 99 4.0 8.0 0.00 0.00 0.00 79 1006.8
20260510001040 94 116 4.0 8.0 0.00 0.00 0.00 79 1006.6
20260510000541 94 46 3.0 11.0 0.00 0.00 0.00 79 1006.6
20260510000056 94 92 4.0 11.0 0.00 0.00 0.00 79 1006.5
20260509235542 94 73 2.0 9.0 0.00 0.00 0.00 79 1006.4
20260509235041 94 51 4.0 9.0 0.00 0.00 0.00 79 1006.4
20260509234546 94 47 4.0 9.0 0.00 0.00 0.00 79 1006.4
20260509234041 94 58 4.0 9.0 0.00 0.00 0.00 79 1006.5
20260509233544 95 118 5.0 9.0 0.00 0.00 0.00 78 1006.6
20260509233047 94 69 4.0 9.0 0.00 0.00 0.00 78 1006.6
20260509232541 94 110 4.0 10.0 0.00 0.00 0.00 78 1006.4
20260509232040 94 111 5.0 10.0 0.00 0.00 0.00 78 1006.4
20260509231549 95 84 5.0 10.0 0.00 0.00 0.00 78 1006.4
20260509231040 95 105 6.0 10.0 0.00 0.00 0.00 78 1006.2
20260509230540 95 89 5.0 10.0 0.00 0.00 0.00 78 1006.0
20260509230054 95 65 5.0 10.0 0.00 0.00 0.00 78 1005.9
20260509225541 95 82 5.0 10.0 0.00 0.00 0.00 78 1005.7
20260509225040 95 92 5.0 10.0 0.00 0.00 0.00 78 1005.7
20260509224548 95 63 5.0 10.0 0.00 0.00 0.00 78 1005.8
20260509224040 95 96 4.0 10.0 0.00 0.00 0.00 78 1005.8
20260509223540 95 76 3.0 9.0 0.00 0.00 0.00 78 1005.7
20260509223047 96 102 5.0 9.0 0.00 0.00 0.00 78 1005.7
20260509222539 96 105 5.0 9.0 0.00 0.00 0.00 77 1005.8
20260509222038 96 121 5.0 10.0 0.00 0.00 0.00 77 1006.0
20260509221545 96 44 3.0 10.0 0.00 0.00 0.00 78 1005.9
20260509221039 96 78 5.0 10.0 0.00 0.00 0.00 78 1005.9
20260509220540 96 113 4.0 8.0 0.00 0.00 0.00 77 1006.0
20260509220052 96 88 4.0 10.0 0.00 0.00 0.00 77 1006.0
20260509215541 96 90 4.0 10.0 0.00 0.00 0.00 78 1005.9
20260509215043 96 106 5.0 10.0 0.00 0.00 0.00 77 1006.0
20260509214547 96 75 5.0 10.0 0.00 0.00 0.00 77 1006.0
20260509214039 97 47 4.0 9.0 0.00 0.00 0.00 77 1006.2
20260509213541 97 38 3.0 9.0 0.00 0.00 0.00 76 1006.3
20260509213101 97 78 4.0 8.0 0.00 0.00 0.00 76 1006.3
20260509212541 97 83 4.0 8.0 0.00 0.00 0.00 76 1006.2
20260509212039 97 119 1.0 8.0 0.00 0.00 0.00 76 1006.2
20260509211611 98 86 4.0 8.0 0.00 0.00 0.00 73 1006.2
20260509211037 97 98 2.0 7.0 0.00 0.00 0.00 72 1006.2
20260509210538 98 55 1.0 7.0 0.00 0.00 0.00 71 1006.2
20260509210058 98 46 3.0 7.0 0.00 0.00 0.00 71 1006.2
20260509205540 97 97 3.0 7.0 0.00 0.00 0.00 71 1006.3
20260509205040 98 113 3.0 7.0 0.00 0.00 0.00 71 1006.5
20260509204559 98 83 1.0 6.0 0.00 0.00 0.00 72 1006.5
20260509204037 97 150 1.0 5.0 0.00 0.00 0.00 72 1006.7
20260509203539 97 70 2.0 8.0 0.00 0.00 0.00 72 1006.8
20260509203057 97 191 3.0 10.0 0.00 0.00 0.00 73 1006.8
20260509202544 97 74 5.0 10.0 0.00 0.00 0.00 72 1006.8
20260509202040 97 138 2.0 7.0 0.00 0.00 0.00 73 1006.9
20260509201553 96 144 5.0 7.0 0.00 0.00 0.00 74 1006.9
20260509201040 96 180 3.0 7.0 0.00 0.00 0.00 74 1007.1
20260509200541 96 0 1.0 8.0 0.00 0.00 0.00 75 1007.2
20260509200050 96 112 5.0 8.0 0.00 0.00 0.00 75 1007.3
20260509195541 96 71 1.0 7.0 0.00 0.00 0.00 74 1007.4
20260509195039 96 101 1.0 7.0 0.00 0.00 0.00 74 1007.3
20260509194550 96 113 3.0 7.0 0.00 0.00 0.00 74 1007.4
20260509194040 95 0 2.0 7.0 0.00 0.00 0.00 75 1007.4
20260509193540 95 93 2.0 6.0 0.00 0.00 0.00 75 1007.4
20260509193051 95 0 2.0 6.0 0.00 0.00 0.00 75 1007.6
20260509192542 95 0 2.0 6.0 0.00 0.00 0.00 76 1007.7
20260509192040 95 36 2.0 6.0 0.00 0.00 0.00 76 1007.7
20260509191550 96 30 0.0 5.0 0.00 0.00 0.00 75 1007.8
20260509191039 97 57 2.0 5.0 0.00 0.00 0.00 75 1007.9
20260509190540 95 0 2.0 6.0 0.00 0.00 0.00 75 1008.0
20260509190052 95 238 1.0 9.0 0.00 0.00 0.00 74 1008.0
20260509185541 95 355 4.0 9.0 0.00 0.00 0.00 76 1008.2
20260509185040 94 124 2.0 9.0 0.00 0.00 0.00 77 1008.2
20260509184549 94 25 4.0 9.0 0.00 0.00 0.00 77 1008.4
20260509184039 94 61 3.0 8.0 0.00 0.00 0.00 77 1008.4
20260509183540 94 99 3.0 7.0 0.00 0.00 0.00 76 1008.4
20260509183056 94 101 2.0 6.0 0.00 0.00 0.00 77 1008.3
20260509182540 94 19 2.0 6.0 0.00 0.00 0.00 77 1008.3
20260509182040 94 51 1.0 6.0 0.00 0.00 0.00 77 1008.3
20260509181606 95 54 2.0 6.0 0.00 0.00 0.00 77 1008.6
20260509181040 94 10 2.0 6.0 0.00 0.00 0.00 77 1008.6
20260509180540 93 142 1.0 6.0 0.00 0.00 0.00 77 1008.7
20260509180051 93 0 2.0 7.0 0.00 0.00 0.00 78 1008.7
20260509175540 93 101 1.0 8.0 0.00 0.00 0.00 77 1008.8
20260509175043 93 146 0.0 8.0 0.00 0.00 0.00 77 1008.8
20260509174552 93 76 3.0 7.0 0.00 0.00 0.00 77 1008.9
20260509174040 93 355 2.0 5.0 0.00 0.00 0.00 76 1009.1
20260509173540 93 294 2.0 8.0 0.00 0.00 0.00 78 1009.0
20260509173047 92 42 1.0 8.0 0.00 0.00 0.00 79 1009.0
20260509172539 92 51 1.0 6.0 0.00 0.00 0.00 79 1008.9
20260509172043 92 90 1.0 6.0 0.00 0.00 0.00 78 1008.9
20260509171556 91 109 0.0 6.0 0.00 0.00 0.00 79 1009.0
20260509171040 91 74 0.0 7.0 0.00 0.00 0.00 78 1008.9
20260509170540 90 288 0.0 7.0 0.00 0.00 0.00 80 1009.0
20260509170048 90 144 1.0 6.0 0.00 0.00 0.00 80 1009.1
20260509165540 90 0 2.0 6.0 0.00 0.00 0.00 80 1009.1
20260509165040 90 61 2.0 6.0 0.00 0.00 0.00 80 1009.2
20260509164550 90 0 2.0 6.0 0.00 0.00 0.00 81 1009.3
20260509164040 90 108 1.0 6.0 0.00 0.00 0.00 81 1009.3
20260509163544 89 0 1.0 6.0 0.00 0.00 0.00 81 1009.3
20260509163057 90 65 2.0 8.0 0.00 0.00 0.00 80 1009.2
20260509162541 90 103 3.0 8.0 0.00 0.00 0.00 80 1009.1
20260509162041 90 62 2.0 8.0 0.00 0.00 0.00 81 1009.2
20260509161546 90 117 1.0 4.0 0.00 0.00 0.00 80 1009.2
20260509161038 90 309 1.0 4.0 0.00 0.00 0.00 80 1009.5